This is the latest recevied weather packets stored in our database for station/object KM4NDN. If no packets are shown the sender has not sent any weather packets the latest 10 day(s).
| Time | Temp. | Humidity | Pressure | Rain* | Wind** | Luminosity | Snow |
|---|---|---|---|---|---|---|---|
| 1777659995 | 7.22° C | 80% | 1012 hPa | 0 mm | - | 244 W/m² | - |
| 1777659691 | 6.67° C | 80% | 1011.9 hPa | 0 mm | - | 285 W/m² | - |
| 1777659389 | 7.22° C | 80% | 1011.9 hPa | 0 mm | - | 245 W/m² | - |
| 1777659086 | 6.67° C | 81% | 1011.8 hPa | 0 mm | - | 232 W/m² | - |
| 1777658784 | 6.67° C | 81% | 1011.6 hPa | 0 mm | - | 265 W/m² | - |
| 1777658480 | 7.22° C | 81% | 1011.5 hPa | 0 mm | - | 368 W/m² | - |
| 1777658177 | 7.22° C | 80% | 1011.7 hPa | 0 mm | - | 322 W/m² | - |
| 1777657873 | 6.67° C | 81% | 1011.7 hPa | 0 mm | - | 344 W/m² | - |
| 1777657570 | 6.67° C | 81% | 1011.8 hPa | 0 mm | - | 428 W/m² | - |
| 1777657268 | 6.67° C | 81% | 1011.9 hPa | 0 mm | - | 339 W/m² | - |
| 1777656965 | 6.11° C | 83% | 1011.5 hPa | 0 mm | - | 320 W/m² | - |
| 1777656661 | 6.11° C | 85% | 1011.8 hPa | 0 mm | - | 211 W/m² | - |
| 1777656357 | 6.11° C | 84% | 1011.8 hPa | 0 mm | - | 168 W/m² | - |
| 1777656053 | 6.11° C | 84% | 1011.7 hPa | 0 mm | - | 188 W/m² | - |
| 1777655749 | 6.11° C | 85% | 1011.6 hPa | 0 mm | - | 140 W/m² | - |
| 1777655446 | 6.11° C | 87% | 1011.5 hPa | 0 mm | - | 233 W/m² | - |
| 1777655143 | 6.11° C | 86% | 1011.7 hPa | 0 mm | - | 244 W/m² | - |
| 1777654840 | 5.56° C | 87% | 1011.5 hPa | 0 mm | - | 197 W/m² | - |
| 1777654538 | 5.56° C | 89% | 1011.4 hPa | 1.27 mm | - | 117 W/m² | - |
| 1777654235 | 5.56° C | 88% | 1011.4 hPa | 1.27 mm | - | 80 W/m² | - |
| 1777653933 | 6.11° C | 89% | 1011.4 hPa | 0 mm | - | 100 W/m² | - |
| 1777653629 | 6.11° C | 89% | 1011.3 hPa | 1.78 mm | - | 185 W/m² | - |
| 1777653326 | 6.11° C | 89% | 1011.4 hPa | 1.78 mm | - | 310 W/m² | - |
| 1777653023 | 5.56° C | 90% | 1011.3 hPa | 1.78 mm | - | 277 W/m² | - |
| 1777652719 | 5.56° C | 90% | 1011.4 hPa | 3.05 mm | - | 181 W/m² | - |
* Rain latest hour (hover to see other rain measurements)
** Current wind speed in m/s (hover to see current wind gust speed)